User: anonymous   Login
Location: Chuathbaluk
(61.5726°N, 159.2454°W)
Time: 14:30:59
(UTC+00:00)
Language:

SR - Orbit

View from above orbital plane
View from above orbital plane
View from above satellite
View from above satellite

Ground track
Ground track

The orbit data is extracted from the following two-line orbital elements,

1 00046U 60007B   21131.65968922  .00000036  00000-0  30026-4 0  9992
2 00046  66.6905 239.6285 0217070 247.3391 110.4635 14.49395723186670
Epoch (UTC): 11 May 2021 15:49:57
Eccentricity: 0.0217070
inclination: 66.6905°
perigee height: 573 km
apogee height: 882 km
right ascension of ascending node: 239.6285°
argument of perigee: 247.3391°
revolutions per day: 14.49395723
mean anomaly at epoch: 110.4635°
orbit number at epoch: 18667

The dashed part of the orbit path shows where the satellite is in the earth's shadow,  

DLR